Weather in Rabat

Morocco     34°01′00″N   6°50′25″W
temp.,
°C
wind,
m/s
gust,
m/s
humid.,
%
clouds,
%
prec.,
mm/h
press.,
hPa
HPBL,
m
6 march, sat
sat601:00+13ese348998 6.3 1014173
04:00+12ssw369210 0.6 1012231
07:00+12ssw358955 0.8 1013239
10:00+14ssw347984 0.0 1015325
13:00+17nw216692 0.0 1015828
16:00+16nnw3373100 0.3 1014469
19:00+15nnw3478100 0.4 1014221
22:00+13ssw01848 0.0 1017121
7 march, sun
sun701:00+12ssw23864 0.0 1017162
04:00+11s22830 0.0 101789
07:00+11ssw34840 0.0 1017137
10:00+14ssw46760 0.0 1018413
13:00+17w44702 0.1 1018793
16:00+17wnw56730 0.1 1017741
19:00+15wnw47835 0.9 1017506
22:00+14w34880 0.1 1018340
8 march, mon
mon801:00+13w34891 0.5 1019268
04:00+13wnw359028 1.1 1018372
07:00+14wnw358362 1.7 1017428
10:00+15wnw457780 0.3 1018622
13:00+15nw567490 0.4 1018780
16:00+15nw667093 0.0 1017871
19:00+14nw457568 0.1 1017628
22:00+13n227191 0.1 1019392
9 march, tue
tue901:00+13nnw227295 0.1 1019290
04:00+11nnw117854 0.1 1018253
07:00+11nne027847 0.2 1018249
10:00+13sse227480 0.1 1019267
13:00+14nnw326380 0.2 1019892
16:00+14nnw556648 0.0 1017660
19:00+13n457036 0.0 1018421
22:00+10ene347712 0.0 1020217
10 march, wed
wed1001:00+9e33826 0.0 1021109
04:00+9e23820 0.0 1020106
07:00+8e23840 0.0 102098
10:00+12ene34730 0.0 1022313
13:00+17ne68590 0.0 1022906
16:00+17nne78610 0.0 1020939
19:00+15n46710 0.0 1021227
22:00+12ne34730 0.0 1023118